SCP
0 0 0 0 0 0 0 -0 -0 -0 0 0 0 0 0 0 0 0 0 0 0 0 0 0 0 0 0 0 0 0 0 0 0 0 0 0 0 0 0 0 0 0 0 0 0 0 0 0 0
0 0 0 0 0 0 0 0 0 0 0 0 0 0 0 0 0 0 0 0 0 0 0 0 0 0 0 0 0 0 0 0 0 0 0 0 0 0 0 0 0 0 0 0 0 0 0 0 0
0 0 0 0 0 0 0 0 0 0 0 0 0 0 0 0 0 0 0 0 0 0 0 0 0 0 0 0 0 0 0 0 0 0 0 0 0 0 0 0 0 0 0 0 0 0 0 0 0
0 0 0 0 0 0 0 0 0 0 0 0 0 0 0 0 0 0 0 0 0 0 0 0 0 0 0 0 0 0 0 0 0 0 0 0 0 0 0 0 0 0 0 0 0 0 0 0 0
0 0 0 0 0 0 0 0 0 0 0 0 0 0 0 0 0 0 0 0 0 0 0 0 0 0 0 0 0 0 0 0 0 0 0 0 0 0 0 0 0 0 0 0 0 0 0 0 0
0 0 0 0 0 0 0 0 0 0 0 0 0 0 0 0 0 0 0 0 0 0 0 0 0 0 0 0 0 0 0 0 0 0 0 0 0 0 0 0 0 0 0 0 0 0 0 0 0
0 0 0 0 0 0 0 0 0 0 0 0 0 0 0 0 0 0 0 0 0 0 0 0 0 0 0 0 0 0 0 0 0 0 0 0 0 0 0 0 0 0 0 0 0 0 0 0 0
0 0 0 0 0 0 0 0 0 0 0 0 0 0 0 0 0 0 0 0 0 0 0 0 0 0 0 0 0 0 0 0 0 0 0 0 0 0 0 0 0 0 0 0 0 0 0 0 0
0 0 0 0 0 0 0 0 0 0 0 0 0 0 0 0 0 0 0 0 0 0 0 0 0 0 0 0 0 0 0 0 0 0 0 0 0 0 0 0 0 0 0 0 0 0 0 0 0
0 0 0 0 0 0 0 0 0 0 0 0 0 0 0 0 0 0 0 0 0 0 0 0 0 0 0 0 0 0 0 0 0 0 0 0 0 0 0 0 0 0 0 0 0 0 0 0 0
0 0 0 0 0 0 0 0 0 0 0 0 0 0 0 0 0 0 0 0 0 0 0 0 0 0 0 0 0 0 0 0 0 0 0 0 0 0 0 0 0 0 0 0 0 0 0 0 0
0 0 0 0 0 0 0 0 0 0 0 0 0 0 0 0 0 0 0 0 0 0 0 0 0 0 0 0 0 0 0 0 0 0 0 0 0 0 0 0 0 0 0 0 0 0 0 0 0
0 0 0 0 0 0 0 0 0 0 0 0 0 0 0 0 0 0 0 0 0 0 0 0 0 0 0 0 0 0 0 0 0 0 0 0 0 0 0 0 0 0 0 0 0 0 0 0 0
0 0 0 0 0 0 0 0 0 0 0 0 0 0 0 0 0 0 0 0 0 0 0 0 0 0 0 0 0 0 0 0 0 0 0 0 0 0 0 0 0 0 0 0 0 0 0 0 0
0 0 0 0 0 0 0 0 0 0 0 0 0 0 0 0 0 0 0 0 0 0 0 0 0 0 0 0 0 0 0 0 0 0 0 0 0 0 0 0 0 0 0 0 0 0 0 0 0
0 0 0 0 0 0 0 0 0 0 0 0 0 0 0 0 0 0 0 0 0 0 0 0 0 0 0 0 0 0 0 0 0 0 0 0 0 0 0 0 0 0 0 0 0 0 0 0 0
0 0 0 0 0 0 0 0 0 0 0 0 0 0 0 0 0 0 0 0 0 0 0 0 0 0 0 0 0 0 0 0 0 0 0 0 0 0 0 0 0 0 0 0 0 0 0 0 0
0 0 0 0 0 0 0 0 0 0 0 0 0 0 0 0 0 0 0 0 0 0 0 0 0 0 0 0 0 0 0 1 1 0 0 0 0 0 0 0 0 0 0 0 0 0 0 0 0
0 0 0 0 0 0 0 0 0 0 0 0 0 0 0 0 0 0 0 0 0 0 0 0 0 0 1 1 1 1 1 1 1 1 0 0 0 0 0 0 0 0 0 0 0 0 0 0 0
0 0 0 0 0 0 0 0 0 0 0 0 0 0 0 0 0 0 0 0 0 0 0 0 0 1 1 1 1 1 1 1 1 1 1 1 0 0 0 0 0 0 0 0 0 0 0 0 0
0 0 0 0 0 0 0 0 0 0 0 0 0 0 0 0 0 0 0 0 0 0 0 0 1 1 1 1 1 1 1 1 1 1 1 1 1 0 0 0 0 0 0 0 0 0 0 0 0
0 0 0 0 0 0 0 0 0 0 0 0 0 0 0 0 0 0 0 0 0 0 0 0 0 1 1 1 1 1 1 1 1 1 1 1 1 1 0 0 0 0 0 0 0 0 0 0 0
0 0 0 0 0 0 0 0 0 0 0 0 0 0 0 0 0 0 0 0 0 0 0 0 0 1 1 1 1 1 1 1 1 1 1 1 1 0 0 0 0 0 0 0 0 0 0 0 0
0 0 0 0 0 0 0 0 0 0 0 0 0 0 0 0 0 0 0 0 0 0 0 0 0 0 1 1 1 1 1 1 1 1 1 1 1 0 0 0 0 0 0 0 0 0 0 0 0
0 0 0 0 0 0 0 0 0 0 0 0 0 0 0 0 0 0 0 0 0 0 0 0 0 0 0 1 1 1 1 1 1 1 1 1 0 0 0 0 0 0 0 0 0 0 0 0 0
0 0 0 0 0 0 0 0 0 0 0 0 0 0 0 0 0 0 0 0 0 0 0 0 0 0 0 0 1 1 1 1 0 0 0 1 0 0 0 0 0 0 0 0 0 0 0 0 0
0 0 0 0 0 0 0 0 0 0 0 0 0 0 0 0 0 0 0 0 0 0 0 0 0 0 0 0 0 0 0 0 0 0 0 0 0 0 0 0 0 0 0 0 0 0 0 0 0
0 0 0 0 0 0 0 0 0 0 0 0 0 0 0 0 0 0 0 0 0 0 0 0 0 0 0 0 0 0 0 0 0 0 0 0 0 0 0 0 0 0 0 0 0 0 0 0 0
0 0 0 0 0 0 0 0 0 0 0 0 0 0 0 0 0 0 0 0 0 0 0 0 0 0 0 0 0 0 0 0 0 0 0 0 0 0 0 0 0 0 0 0 0 0 0 0 0
0 0 0 0 0 0 0 0 0 0 0 0 0 0 0 0 0 0 0 0 0 0 0 0 0 0 0 0 0 0 0 0 0 0 0 0 0 0 0 0 0 0 0 0 0 0 0 0 0
Wind_Speed
2 2 2 2 2 1 3 4 4 7 6 4 5 3 3 1 1 4 5 10 12 13 12 12 9 10 10 10 10 10 11 12 12 13 13 13 13 13 14 14 14 15 16 16 16 16 16 16 17
2 2 1 1 3 3 4 5 7 7 6 6 5 3 3 3 3 5 7 11 13 12 11 11 10 10 10 10 10 10 11 12 12 12 13 13 13 13 13 14 14 15 15 16 16 16 16 16 16
1 2 1 2 3 2 4 6 8 6 7 5 5 2 1 3 4 6 8 13 13 11 10 11 10 10 11 10 10 10 11 11 12 12 12 13 13 13 13 13 13 14 15 15 15 15 15 15 15
1 1 1 4 3 1 1 5 8 10 6 3 4 5 3 3 3 6 11 13 13 11 10 12 9 11 10 10 10 10 11 11 12 12 12 12 12 12 12 12 13 13 14 15 15 15 15 15 15
1 2 4 4 3 2 1 4 10 11 8 6 5 4 6 4 4 8 12 13 13 11 10 11 9 9 10 10 10 10 10 11 11 12 12 12 11 11 11 12 12 13 13 14 14 14 14 14 14
2 3 5 6 4 2 3 6 10 8 6 5 5 5 6 4 6 10 12 12 12 11 10 11 9 8 8 9 9 9 10 10 11 11 11 11 11 11 11 11 11 12 13 13 14 13 13 13 13
3 4 5 5 5 4 5 8 9 8 7 6 5 6 6 6 7 10 11 10 10 10 10 9 10 9 8 7 8 8 8 9 9 10 10 10 10 10 9 9 10 11 12 13 13 13 12 12 12
2 3 5 5 6 5 7 7 4 6 5 4 4 4 5 9 10 11 10 9 9 9 9 9 9 9 9 9 8 8 8 8 9 10 10 10 9 9 8 8 9 10 11 12 12 12 12 12 11
3 4 6 7 7 6 9 7 5 1 4 4 2 1 3 12 13 12 9 9 9 9 8 8 9 8 8 8 8 8 8 8 9 9 9 7 7 7 6 8 8 9 10 11 11 11 11 9 10
4 6 6 4 4 6 10 8 9 7 6 5 5 3 6 12 13 14 13 13 13 12 11 9 9 9 8 6 7 6 6 7 6 6 8 5 5 4 5 9 9 9 9 10 10 9 7 4 4
5 6 4 4 3 5 9 7 7 8 7 8 8 10 11 13 14 14 14 14 13 12 11 10 9 9 8 6 5 4 4 5 6 7 7 5 5 5 5 4 5 6 6 5 6 4 3 3 3
4 2 3 4 4 6 8 8 7 8 3 1 3 10 14 16 16 16 16 14 13 12 12 11 11 9 9 7 6 5 4 4 5 6 7 6 4 4 4 3 4 4 3 3 3 2 3 3 3
4 4 2 3 4 4 6 6 5 8 5 1 3 10 14 16 16 14 13 13 13 13 13 12 12 11 9 8 6 6 6 5 6 5 7 7 5 5 5 4 4 4 3 4 3 3 4 4 3
4 5 5 3 4 3 5 3 3 5 4 5 6 10 13 14 15 13 14 14 15 14 14 13 13 12 11 9 7 6 6 6 6 6 7 8 5 5 5 5 5 4 4 4 4 4 4 3 3
5 7 4 2 3 2 4 5 8 3 4 6 8 9 10 12 12 15 15 15 15 14 13 13 13 12 12 11 10 7 6 6 6 6 8 8 7 7 6 5 5 5 4 5 4 5 4 3 3
5 7 7 3 3 2 6 10 6 2 5 8 8 8 9 11 13 13 13 13 13 13 13 14 11 13 13 11 10 7 7 7 6 6 7 9 9 8 7 6 5 5 5 5 5 5 5 4 4
6 9 10 5 3 3 7 9 3 2 4 8 8 8 9 9 11 13 13 13 13 13 14 14 14 14 13 12 9 9 7 8 7 7 7 9 10 10 8 6 5 6 5 5 5 5 5 5 5
10 8 7 9 4 5 7 10 6 5 5 8 8 8 8 10 11 10 11 12 12 13 14 14 14 15 13 10 8 7 8 8 7 7 8 10 9 11 9 6 7 7 6 6 6 6 5 4 4
8 8 7 4 2 5 9 12 12 8 8 11 11 10 10 10 8 6 7 8 10 12 14 15 15 15 12 10 10 9 9 8 8 8 10 11 11 11 10 7 8 8 8 8 8 6 6 5 3
8 7 6 3 2 2 5 11 12 10 10 11 12 12 11 9 7 6 5 6 8 10 12 14 15 15 15 12 11 9 9 8 8 8 10 12 12 12 10 11 9 10 8 9 9 8 5 4 5
6 8 7 5 3 1 4 9 9 8 6 8 11 11 10 9 8 6 5 5 6 8 10 10 13 13 15 14 9 6 6 5 7 9 8 11 12 12 12 12 11 10 10 9 11 10 9 7 6
9 5 7 7 5 3 2 7 6 5 6 9 11 10 9 7 6 5 4 4 4 5 6 8 9 11 11 12 11 12 10 10 11 8 7 9 11 11 12 11 11 10 9 10 10 11 9 7 7
5 6 6 4 4 3 5 7 8 3 8 11 10 7 5 3 3 2 2 2 2 2 3 5 7 7 9 10 12 12 11 9 6 6 6 7 7 9 10 10 10 10 9 10 9 10 10 8 8
11 9 7 4 3 8 8 10 10 7 9 6 5 4 3 2 2 2 1 1 1 1 1 2 4 5 6 8 9 10 10 8 6 5 5 4 4 4 7 7 8 9 8 10 10 10 12 10 9
8 9 5 5 6 8 4 9 12 7 7 5 4 3 2 2 3 3 3 3 3 3 3 3 4 4 4 4 5 5 6 6 5 5 4 4 3 3 4 4 5 6 7 8 8 9 10 11 11
12 13 10 9 8 5 4 12 10 3 4 5 5 4 3 3 3 3 3 3 3 4 4 4 5 5 4 4 4 3 2 2 1 1 1 1 1 1 1 2 3 4 4 4 6 7 8 7 10
12 9 4 5 3 2 8 9 10 6 7 7 6 6 6 5 4 4 4 4 4 4 4 5 6 6 5 5 5 4 4 3 3 2 2 1 1 1 1 1 1 2 2 3 4 4 5 6 8
4 10 6 7 7 8 9 10 8 6 10 10 9 8 7 6 6 5 5 5 5 5 5 6 6 6 6 5 5 4 5 4 4 3 3 2 2 2 1 1 1 1 1 2 3 3 4 5 6
9 8 7 8 6 8 8 10 6 10 10 10 9 8 8 8 7 6 5 5 5 5 5 6 6 6 6 5 5 6 5 5 5 4 3 3 2 2 2 1 1 1 1 2 2 3 3 5 5
8 12 13 10 8 7 7 10 2 5 5 5 7 7 8 8 7 6 6 6 5 5 5 5 5 5 5 5 6 6 5 5 5 4 4 3 2 2 2 2 2 2 2 2 2 3 4 5 6
Wind_Direction
337 329 274 259 224 163 129 129 142 143 150 141 152 177 193 171 344 62 95 147 140 143 142 140 131 128 123 118 114 111 108 105 102 99 96 93 90 87 84 81 80 80 79 79 78 78 77 76 76
341 312 252 264 242 192 151 160 168 146 128 132 150 168 179 139 57 98 138 148 148 143 144 141 131 132 127 123 118 115 112 109 106 103 100 97 93 89 86 83 82 82 82 82 81 80 79 78 77
10 334 265 211 228 213 149 166 160 124 135 157 153 153 134 96 119 137 143 150 148 144 143 134 137 135 131 126 122 119 117 114 109 107 103 100 95 91 88 85 84 85 85 85 84 83 81 80 79
243 174 198 226 207 203 140 154 155 146 154 168 168 145 118 56 118 138 145 154 150 146 146 139 143 138 135 130 126 123 122 118 113 109 106 102 99 95 91 89 87 88 87 87 86 85 83 82 81
228 208 197 205 205 157 166 157 166 163 163 162 181 152 129 99 114 139 153 158 153 150 148 146 144 140 138 136 131 127 124 121 117 113 110 107 103 99 96 92 91 92 91 90 88 87 85 83 81
169 199 205 201 184 159 161 164 169 169 158 161 181 155 127 118 141 151 157 162 156 152 151 149 141 140 139 137 133 130 127 125 123 119 116 112 109 103 98 94 93 95 95 93 92 89 87 84 82
200 193 200 191 176 173 158 166 179 170 172 169 180 165 138 154 154 154 159 161 158 158 157 157 158 154 143 135 133 131 128 125 124 122 116 108 104 101 93 91 95 97 97 97 94 91 89 86 83
214 178 172 185 181 165 146 161 179 178 159 120 188 193 153 157 151 153 156 160 161 166 167 165 165 165 162 155 138 131 127 124 118 114 110 106 104 100 92 101 97 99 101 101 98 94 90 86 82
206 196 191 188 184 161 157 167 148 140 136 149 186 15 66 135 149 154 159 167 170 175 177 175 173 172 169 163 150 144 132 126 128 123 120 135 137 128 122 98 95 99 102 103 102 98 93 91 86
200 204 194 182 182 160 168 177 156 168 174 181 179 142 136 150 163 171 178 181 183 184 185 184 184 179 176 168 165 166 163 158 165 156 156 156 142 124 117 94 85 88 94 99 98 99 105 108 103
196 201 173 171 169 157 165 170 168 179 196 207 199 172 159 169 178 186 191 191 191 189 188 191 190 187 183 177 177 172 171 169 172 170 167 158 151 144 145 136 127 121 121 114 114 124 111 100 94
178 167 159 155 151 159 167 160 177 206 190 88 213 164 168 181 189 194 196 195 194 195 195 194 193 192 192 186 184 180 179 179 179 176 176 172 168 169 162 163 155 156 150 138 137 125 119 116 111
179 154 128 110 128 141 148 172 191 215 204 128 146 169 184 191 197 200 201 200 199 201 200 199 197 197 194 193 191 190 190 191 186 182 185 189 181 178 173 170 172 171 164 167 160 152 147 144 137
160 135 124 120 129 145 162 171 221 221 189 186 183 191 197 201 201 199 202 205 205 205 203 200 200 201 198 199 199 197 196 194 193 192 193 195 192 184 180 179 181 181 180 176 177 169 168 164 162
135 132 128 125 146 146 163 212 223 188 176 202 207 207 209 213 209 210 208 209 208 207 206 204 203 202 203 204 205 203 200 197 198 197 195 195 198 193 188 186 187 185 180 176 176 172 180 180 181
136 164 187 166 165 153 201 232 209 172 209 221 219 218 218 219 220 221 219 217 215 210 209 207 203 206 207 206 206 205 203 201 203 198 195 199 199 196 193 194 192 181 178 183 184 183 189 193 199
174 196 200 179 180 171 211 240 195 157 216 232 228 228 230 229 229 227 224 222 219 215 212 211 208 210 210 208 207 205 201 203 204 201 200 201 201 199 198 198 191 181 185 190 188 195 199 202 204
180 183 187 195 169 188 216 239 235 218 241 248 243 238 237 239 237 229 225 224 222 219 217 214 212 212 211 208 207 206 206 206 205 205 206 201 201 200 201 200 192 186 191 195 197 198 202 214 205
168 173 182 174 116 206 229 248 254 246 246 250 246 242 241 243 247 235 226 221 221 219 217 215 214 211 207 204 205 207 210 208 207 208 210 205 202 200 201 200 195 194 202 203 197 190 199 205 184
153 169 170 132 83 225 254 263 262 250 243 242 244 243 242 241 234 227 224 216 217 219 219 218 215 213 209 210 210 213 214 212 209 207 212 210 206 203 203 205 201 198 202 203 200 194 193 189 183
175 188 179 161 132 124 294 265 245 240 237 247 244 246 250 248 249 245 236 228 222 222 222 219 217 214 213 212 210 205 207 206 207 211 213 214 211 208 207 209 206 203 203 207 205 202 199 199 198
201 192 161 154 184 216 250 270 252 238 258 246 240 232 236 239 243 243 240 234 232 238 234 226 220 216 214 210 210 208 209 215 218 214 212 212 214 215 214 213 212 209 208 212 208 205 208 203 202
150 125 132 151 181 238 214 254 262 237 253 244 232 220 218 223 219 214 225 247 260 259 232 216 209 208 208 209 212 214 220 224 223 213 209 210 211 217 217 215 213 213 213 216 211 204 207 211 212
129 106 85 91 178 245 219 226 260 215 220 222 203 186 180 172 166 155 128 119 90 83 122 160 168 175 190 199 208 214 219 217 213 207 208 208 210 216 219 217 216 215 215 216 215 209 209 214 217
166 149 155 183 210 234 157 229 251 228 227 227 222 206 191 174 172 153 137 118 99 90 94 113 126 126 144 165 184 201 210 212 212 211 212 208 210 217 226 219 222 222 222 220 214 212 213 214 216
188 188 185 192 208 212 186 236 252 244 262 255 253 239 209 192 169 151 135 119 106 95 96 107 112 111 116 129 137 139 148 153 153 154 158 172 189 219 241 223 226 229 227 223 218 217 216 213 219
171 202 181 129 110 228 228 251 279 253 251 238 226 206 196 178 163 150 136 123 114 107 99 104 108 105 102 106 109 105 102 107 109 102 95 92 67 27 324 254 242 247 237 230 222 224 219 218 223
196 153 147 173 176 226 246 243 240 200 216 211 202 194 182 165 158 150 140 129 117 111 107 104 104 103 100 98 96 93 93 92 93 90 84 75 60 45 18 348 312 291 282 259 240 241 233 229 231
152 173 183 183 199 205 241 249 215 208 204 201 194 182 174 167 161 155 142 130 121 115 112 108 107 106 102 100 100 97 91 87 85 79 72 63 55 42 29 1 343 335 321 303 268 260 258 249 249
206 193 180 185 205 214 237 257 120 222 218 198 184 174 168 164 159 153 145 137 131 125 118 114 112 108 104 103 99 93 90 89 85 78 69 62 57 44 24 6 355 346 330 312 290 281 275 267 263